Probability
0 0 0 0 0 0 0 0 1 3 4 2 1 0 0 0 0 0 0 0 0 0 0 0 0 0 0 0 0 0 0 0 0 0 0 0 0 0 0 0 0 0 0
0 0 0 0 0 0 0 0 0 1 1 1 0 0 0 0 0 0 0 0 0 0 0 0 0 0 0 0 0 0 0 0 0 0 0 0 0 0 0 0 0 0 0
0 0 0 0 0 0 0 0 0 0 0 0 0 0 0 0 0 0 0 0 0 0 0 0 0 0 0 0 0 0 0 0 0 0 0 0 0 0 0 0 0 0 0
0 0 0 0 0 0 0 0 0 0 0 0 0 0 0 0 0 0 0 0 0 0 0 0 0 0 0 0 0 0 0 0 0 0 0 0 0 0 0 0 0 0 0
0 0 0 0 0 0 0 0 0 0 0 0 0 0 0 0 0 0 0 0 0 0 0 0 0 0 0 0 0 0 0 0 0 0 0 0 0 0 0 0 0 0 0
0 0 0 0 0 0 0 0 0 0 0 0 0 0 0 0 0 0 0 0 0 0 0 0 0 0 0 0 0 0 0 0 0 0 0 0 0 0 0 0 0 0 0
0 0 0 0 0 0 0 0 0 0 0 0 0 0 0 0 0 0 0 0 0 0 0 0 0 0 0 0 0 0 0 0 0 0 0 0 0 0 0 0 0 0 0
0 0 0 0 0 0 0 0 0 0 0 0 0 0 0 0 0 0 0 0 0 0 0 0 0 0 0 0 0 0 0 0 0 0 0 0 0 0 0 0 0 0 0
0 0 0 0 0 0 0 0 0 0 0 0 0 0 0 0 0 0 0 0 0 0 0 0 0 0 0 0 0 0 0 0 0 0 0 0 0 0 0 0 0 0 0
0 0 0 0 0 0 0 0 0 0 0 0 0 0 0 0 0 0 0 0 0 0 0 0 0 0 0 0 0 0 0 0 0 0 0 0 0 0 0 0 0 0 0
0 0 0 0 0 0 0 0 0 0 0 0 0 0 0 0 0 0 0 0 0 0 0 0 0 0 0 0 0 0 0 0 0 0 0 0 0 0 0 0 0 0 0
0 0 0 0 0 0 0 0 0 0 0 0 0 0 0 0 0 0 0 0 0 0 0 0 0 0 0 0 0 0 0 0 0 0 0 0 0 0 0 0 0 0 0
0 0 0 0 0 0 0 0 0 0 0 0 0 0 0 0 0 0 0 0 0 0 0 0 0 0 0 0 0 0 0 0 0 0 0 0 0 0 0 0 0 0 0
2 3 3 2 2 1 0 0 0 0 0 0 0 0 0 0 0 0 0 0 0 0 0 0 0 0 0 0 0 0 0 0 0 0 0 0 0 0 0 0 0 0 0
9 13 16 15 12 7 3 0 0 0 0 0 0 0 0 0 0 0 0 0 0 0 0 0 0 0 0 0 0 0 0 0 0 0 0 0 0 0 0 0 0 0 0
16 27 39 43 36 24 12 5 2 0 0 0 0 0 0 0 0 0 0 0 0 0 0 0 0 0 0 0 0 0 0 0 0 0 0 0 0 0 0 0 0 0 0
16 28 51 68 68 52 34 19 10 4 1 0 0 0 0 0 0 0 0 0 0 0 0 0 0 0 0 0 0 0 0 0 0 0 0 0 0 0 0 0 0 0 0
7 16 38 68 84 79 62 44 27 13 4 0 0 0 0 0 0 0 0 0 0 0 0 0 0 0 0 0 0 0 0 0 0 0 0 0 0 0 0 0 0 0 0
1 4 18 46 76 89 84 71 52 28 10 2 0 0 0 0 0 0 0 0 0 0 0 0 0 0 0 0 0 0 0 0 0 0 0 0 0 0 0 0 0 0 0
0 1 5 22 52 81 93 90 74 50 26 9 2 0 0 0 0 0 0 0 0 0 0 0 0 0 0 0 0 0 0 0 0 0 0 0 0 0 0 0 0 0 0
0 0 1 7 28 60 87 96 90 75 53 30 12 3 0 0 0 0 0 0 0 0 0 0 0 0 0 0 0 0 0 0 0 0 0 0 0 0 0 0 0 0 0
0 0 0 1 11 37 69 91 95 86 71 49 25 8 2 0 0 0 0 0 0 0 0 0 0 0 0 0 0 0 0 0 0 0 0 0 0 0 0 0 0 0 0
0 0 0 0 3 18 47 75 89 85 75 63 45 23 7 0 0 0 0 0 0 0 0 0 0 0 0 0 0 0 0 0 0 0 0 0 0 0 0 0 0 0 0
0 0 0 0 0 7 25 52 74 82 80 74 64 42 16 3 0 0 0 0 0 0 0 0 0 0 0 0 0 0 0 0 0 0 0 0 0 0 0 0 0 0 0
0 0 0 0 0 1 9 27 51 69 73 64 56 44 23 6 1 0 0 0 0 0 0 0 0 0 0 0 0 0 0 0 0 0 0 0 0 0 0 0 0 0 0
0 0 0 0 0 0 2 13 32 53 58 44 36 36 25 9 1 0 0 0 0 0 0 0 0 0 0 0 0 0 0 0 0 0 0 0 0 0 0 0 0 0 0
Wind_Speed
5 7 14 15 14 13 13 13 14 15 16 16 16 16 15 13 11 10 9 8 7 7 9 10 11 12 12 12 12 12 12 11 11 11 11 11 10 9 9 9 7 4 6
8 8 14 15 14 14 13 13 13 14 15 15 16 15 14 12 11 9 8 8 7 8 10 11 11 12 12 11 11 11 11 10 9 8 8 8 7 8 8 7 6 3 6
10 9 12 14 14 13 13 12 12 13 14 15 15 14 13 12 10 9 9 9 8 9 10 11 11 11 10 10 10 10 9 8 7 6 6 4 4 7 7 5 5 4 4
11 8 9 14 14 13 13 12 12 12 14 15 15 14 13 12 11 10 10 10 9 9 10 11 10 9 9 9 9 9 8 7 6 5 3 2 3 4 5 4 3 3 3
9 7 10 15 15 14 13 12 12 12 13 14 15 14 13 12 11 11 10 10 10 9 9 9 8 8 8 8 8 8 8 7 6 5 2 2 2 3 5 4 2 1 1
8 7 9 15 15 14 13 13 12 13 14 14 15 14 13 12 12 11 11 10 9 8 8 8 7 7 7 7 7 7 7 7 7 4 3 2 2 4 5 5 4 3 2
8 7 8 15 15 14 13 13 12 13 14 14 14 14 13 12 11 11 10 9 8 8 8 8 7 7 7 7 7 7 6 7 5 4 3 2 3 3 5 6 7 8 8
10 8 8 15 14 13 13 13 12 13 13 14 14 14 13 12 11 11 10 9 8 7 7 7 7 7 7 8 8 7 6 7 6 5 3 2 5 4 6 7 8 10 12
9 7 6 8 10 12 12 11 11 11 12 12 12 12 11 10 11 11 10 8 7 6 6 6 6 7 8 8 9 9 10 10 5 3 3 2 5 4 7 9 12 15 17
7 7 6 6 7 7 8 11 11 10 10 10 10 9 8 8 9 10 9 7 6 5 5 6 6 8 9 9 9 10 10 8 4 3 2 2 4 6 10 13 15 16 17
9 6 6 6 6 6 6 8 9 9 9 8 7 7 6 3 4 6 7 6 5 5 5 6 7 9 10 10 10 10 8 3 3 2 1 2 7 12 14 15 15 15 15
13 11 7 7 7 6 6 5 4 5 5 5 4 4 3 3 3 4 7 6 5 4 4 6 8 8 7 4 6 7 3 4 3 3 2 9 13 15 15 14 14 13 13
11 12 10 9 8 7 5 4 3 3 4 5 5 5 4 3 2 3 3 3 3 4 4 5 6 4 4 3 3 3 4 3 2 3 4 11 13 13 13 12 12 11 11
10 11 10 10 9 8 6 5 5 4 4 4 5 6 4 3 3 3 3 3 3 2 3 3 3 4 4 4 4 4 4 3 3 2 4 11 12 12 11 11 10 10 9
10 11 11 11 11 10 8 6 6 6 6 6 5 6 6 5 5 4 3 3 3 3 3 3 4 4 4 4 3 4 4 4 4 4 3 10 11 11 10 9 9 9 8
11 12 11 12 13 11 10 8 7 7 6 6 6 7 8 6 6 5 5 4 4 4 4 4 4 4 3 3 4 3 4 3 4 4 4 6 10 10 9 9 9 9 9
9 10 12 13 13 14 13 11 8 7 7 7 7 7 9 8 7 7 6 5 4 5 5 5 5 4 4 3 4 3 3 3 3 4 4 3 4 6 8 9 9 9 9
8 9 12 12 14 16 14 12 9 8 9 8 7 7 10 10 9 8 7 6 6 5 5 5 5 4 3 3 3 2 2 2 3 3 3 3 3 3 4 8 8 8 8
9 9 10 12 13 15 16 12 10 8 9 7 7 8 10 11 11 9 7 7 8 6 5 6 3 3 3 3 3 3 2 2 2 2 2 2 2 2 2 4 7 7 7
8 8 9 10 12 13 11 9 8 8 8 7 8 9 11 11 12 10 7 9 9 7 5 5 4 3 3 4 4 3 2 1 1 1 2 1 1 2 2 3 3 4 7
7 8 9 9 11 9 8 10 11 12 11 10 10 11 12 11 12 11 8 9 9 9 9 8 5 4 3 3 4 2 2 2 2 1 1 1 1 2 2 2 2 2 3
7 8 9 10 10 10 10 10 8 9 8 10 8 10 12 12 13 12 12 11 10 8 9 8 6 5 3 3 4 4 2 1 1 1 1 2 2 2 2 2 2 2 2
7 7 7 9 10 10 10 6 4 4 3 5 7 9 11 13 14 13 14 13 12 11 11 10 9 9 5 3 2 5 5 5 2 0 1 1 2 2 2 2 2 2 2
7 6 6 7 8 8 8 8 10 10 11 11 10 11 11 14 15 15 14 14 14 11 12 11 9 6 7 5 2 1 2 4 5 2 1 1 1 2 2 1 1 2 2
6 5 4 5 7 7 8 10 11 12 11 8 7 9 11 11 13 14 14 13 14 11 12 12 10 8 6 7 6 4 3 2 2 4 3 2 1 2 2 2 2 2 2
6 5 4 4 6 6 7 9 11 14 12 9 10 11 10 7 8 12 13 13 12 11 12 12 11 11 6 7 6 5 5 4 4 4 4 3 2 2 1 1 3 3 2
Wind_Direction
173 162 159 158 156 152 149 145 142 139 137 133 129 126 123 120 115 109 106 106 106 107 119 126 119 108 99 92 90 90 88 84 81 75 66 62 70 82 85 81 76 56 71
150 154 158 158 155 153 150 147 143 142 140 136 132 129 124 119 113 108 108 111 113 104 100 111 107 99 91 89 91 93 92 89 84 77 65 51 54 82 85 78 79 74 69
141 151 155 157 154 152 150 147 148 148 146 142 138 132 127 121 116 113 113 113 111 101 89 88 92 90 88 90 93 92 88 82 80 82 75 49 36 76 84 78 70 69 66
144 146 150 155 153 151 151 150 151 154 152 147 142 137 131 127 124 120 117 114 109 100 90 85 87 90 90 93 94 86 76 66 67 88 82 48 6 54 82 80 66 52 46
141 142 154 154 152 152 153 154 157 159 155 151 145 141 137 134 130 125 119 115 109 105 101 98 98 97 95 93 89 78 69 65 73 85 84 49 360 355 65 65 59 37 342
136 139 156 153 153 154 156 157 161 164 160 154 150 146 144 140 133 127 121 118 116 117 116 114 109 102 94 89 81 70 64 74 81 89 89 49 343 340 57 57 47 47 38
139 142 156 156 156 156 158 159 161 163 161 158 156 154 152 147 139 134 132 132 130 126 122 118 112 100 85 75 69 65 70 87 94 93 82 31 322 350 53 49 45 47 48
148 148 159 161 159 159 161 161 164 166 165 165 164 164 161 156 149 145 144 143 139 133 128 121 110 95 78 67 62 63 82 90 89 82 66 8 329 32 57 55 55 60 62
150 152 162 162 161 162 164 165 168 169 170 170 171 171 169 163 159 156 155 154 150 143 137 125 110 92 77 70 69 73 84 86 78 66 46 349 344 43 67 73 74 73 67
156 163 167 162 159 159 164 171 172 172 174 176 176 173 169 167 167 166 164 165 162 155 143 130 114 94 78 77 83 84 84 77 68 54 18 328 4 74 84 81 78 72 65
176 180 174 167 165 162 165 175 174 174 178 179 176 170 161 160 166 169 167 170 167 158 141 128 113 96 80 77 86 88 80 68 62 40 2 46 85 88 83 79 74 69 64
190 191 188 180 174 168 176 170 168 169 172 168 159 158 146 150 162 155 165 167 161 144 121 116 102 90 83 70 73 80 70 66 55 32 61 90 91 86 80 75 71 68 64
194 197 197 193 185 179 177 168 170 168 167 167 167 163 149 140 138 135 135 140 121 96 74 80 77 75 82 85 82 80 79 66 52 34 67 91 92 87 82 77 72 69 65
203 204 202 200 197 192 185 180 178 179 179 179 177 167 155 150 146 143 140 132 117 106 106 94 96 93 88 85 93 96 87 74 60 47 69 88 92 91 87 82 76 71 66
216 213 207 203 204 199 194 193 192 193 193 190 183 177 167 166 165 160 154 141 134 128 128 124 116 108 97 88 90 105 103 90 78 63 65 89 91 92 90 84 77 69 63
215 217 211 209 207 203 203 202 201 199 197 193 193 185 177 173 171 169 167 158 152 146 140 133 129 119 105 100 94 103 112 103 91 82 66 82 94 96 94 88 78 68 59
214 213 211 212 208 208 209 207 204 201 198 202 199 188 185 179 177 176 176 173 162 145 134 122 114 106 105 99 94 104 116 115 107 95 81 65 72 85 97 94 83 69 57
223 216 214 211 208 211 211 207 207 202 202 205 198 193 192 187 181 177 180 178 159 146 143 138 131 110 107 112 107 95 112 125 120 108 89 78 63 55 78 95 81 67 53
227 225 219 213 208 209 211 209 207 202 204 203 197 197 195 191 185 181 181 172 158 152 152 148 129 129 133 131 120 93 95 131 142 127 117 98 78 72 51 74 69 56 43
232 231 230 221 216 209 206 206 206 205 206 201 202 203 194 192 187 181 175 168 161 157 156 149 133 113 122 134 110 82 60 91 121 141 152 121 94 90 77 64 49 26 21
236 227 228 224 221 207 199 204 208 212 210 207 207 202 196 191 185 181 174 168 170 172 171 156 133 128 126 143 113 86 45 49 94 109 149 149 138 120 108 90 65 40 359
236 227 226 225 222 211 207 206 207 208 211 210 205 199 195 189 185 184 177 176 177 169 163 163 147 136 134 166 142 129 129 345 321 47 112 159 151 130 124 106 74 42 10
258 240 232 226 224 217 210 202 192 189 189 192 200 204 197 189 187 187 183 177 179 176 178 177 165 151 149 170 183 151 155 198 205 312 24 118 149 139 129 115 81 46 36
279 266 247 238 233 226 212 201 199 205 212 209 207 207 196 191 190 189 183 181 181 182 181 181 173 161 144 152 154 112 126 145 150 173 267 255 185 171 164 137 105 88 75
310 302 280 261 247 237 220 211 210 216 219 211 202 200 196 193 192 189 184 184 185 184 182 178 173 168 157 154 155 149 129 81 110 144 186 223 251 220 210 189 172 147 110
339 332 322 300 275 258 237 223 217 219 218 205 199 201 197 190 191 191 187 188 188 184 181 180 178 174 166 153 151 151 152 155 171 158 160 180 213 259 258 218 183 170 155